Regional Weather Roundup
Issued by NWS

Home | Current Version | Previous Version | Graphics & Text | Print | Product List | Glossary On
Versions: 1 2 3 4 5 6 7 8 9 10 11 12 13 14 15 16 17 18 19 20 21 22 23 24 25 26 27 28 29 30 31 32 33 34 35 36 37 38 39 40 41 42 43 44 45 46 47 48 49 50
000
ASUS43 KFSD 292210
RWRSD

WEATHER ROUNDUP FOR SOUTH DAKOTA
NATIONAL WEATHER SERVICE SIOUX FALLS SD
500 PM CDT MON AUG 29 2016

NOTE: "FAIR" INDICATES FEW OR NO CLOUDS BELOW 12,000 FEET WITH NO
SIGNIFICANT WEATHER AND/OR OBSTRUCTIONS TO VISIBILITY.


SDZ001>005-009-010-012>017-292300-
NORTHWEST AND NORTH CENTRAL SOUTH DAKOTA

CITY           SKY/WX    TMP DP  RH WIND       PRES   REMARKS
BUFFALO          N/A     83  46  27 E13       30.19F
FAITH            N/A     86  47  25 NE17      30.20S
MOBRIDGE       SUNNY     87  50  27 NE15      30.15F
$$

SDZ012>016-024>037-041>051-057-063-072>074-292300-
SOUTHWEST AND SOUTH CENTRAL SOUTH DAKOTA

CITY           SKY/WX    TMP DP  RH WIND       PRES   REMARKS
RAPID CTY ARPT SUNNY     83  56  39 E7        30.23F
PIERRE         SUNNY     90  63  40 NE9       30.10F
CUSTER         SUNNY     74  50  42 NE15G24   30.37S
ELLSWORTH AFB  SUNNY     82  55  39 NE10      30.23
PHILIP         SUNNY     87  65  47 NE13      30.15F
PINE RIDGE     CLOUDY    85  59  41 NE10      30.20F
WINNER         FAIR      91  65  41 SE9       30.13S
$$

SDZ004>011-016>023-039-040-292300-
NORTHEAST SOUTH DAKOTA

CITY           SKY/WX    TMP DP  RH WIND       PRES   REMARKS
ABERDEEN       MOSUNNY   85  69  58 N10       30.14S
WATERTOWN      CLOUDY    86  67  52 SW10      30.14S
BROOKINGS      MOSUNNY   84  71  65 S15       30.14F
SISSETON         N/A     85  71  63 NE9       30.12S
$$

SDZ017-020-022-023-036>040-048>070-292300-
SOUTHEAST SOUTH DAKOTA

CITY           SKY/WX    TMP DP  RH WIND       PRES   REMARKS
SIOUX FALLS    CLOUDY    83  70  64 S9        30.14S
HURON          CLOUDY    88  68  51 S12       30.09F
CHAMBERLAIN    MOSUNNY   91  66  43 S8        30.10S
MITCHELL       PTSUNNY   86  66  51 S8        30.10F
YANKTON        CLOUDY    82  64  54 SE7       30.12R
$$

ABBREVIATIONS USED IN REMARKS
   TC - TEMPERATURE IN CELSIUS
  WCI - WIND CHILL INDEX
   HX - HEAT INDEX
  VSB - VISIBILITY





USA.gov is the U.S. government's official web portal to all federal, state and local government web resources and services.